AirNav   BOSE ProFlight Aviation Headset
 
 920 users online  

3Y7 Isabel Municipal Airport
Isabel, South Dakota, USA

GOING TO ISABEL?


FAA INFORMATION EFFECTIVE 21 JUNE 2018

Location

FAA Identifier: 3Y7
Lat/Long: 45-23-22.9600N / 101-26-15.2600W
45-23.382667N / 101-26.254333W
45.3897111 / -101.4375722
(estimated)
Elevation: 2398 ft. / 731 m (estimated)
Variation: 10E (1985)
Time zone: UTC -6 (UTC -7 during Standard Time)
Zip code: 57633

Airport Operations

Airport use: Open to the public
Activation date: 11/1949
Control tower: no
ARTCC: MINNEAPOLIS CENTER
FSS: HURON FLIGHT SERVICE STATION
NOTAMs facility: HON (NOTAM-D service available)
Attendance: UNATNDD
Wind indicator: lighted
Segmented circle: no
Lights: ACTVT LIRL RY 13/31 - CTAF.
Beacon: white-green (lighted land airport)
Operates sunset to sunrise.

Airport Communications

CTAF: 122.9

Nearby radio navigation aids

VOR radial/distance  VOR name  Freq  Var
DPRr022/22.1DUPREE VOR/DME116.8010E

Airport Services

Parking: tiedowns
Airframe service: NONE
Powerplant service: NONE
Bottled oxygen: NONE
Bulk oxygen: NONE

Runway Information

Runway 13/31

Dimensions: 3009 x 150 ft. / 917 x 46 m
Surface: turf, in fair condition
Runway edge lights: low intensity
Runway edge markings: 13/31 MARKED WITH 2 FT METAL A-FRAMES.
RUNWAY 13  RUNWAY 31
Latitude: 45-23.573333N45-23.192000N
Longitude: 101-26.478500W101-26.030167W
Elevation: 2386.0 ft.2383.0 ft.
Gradient: 0.1%0.1%
Traffic pattern: leftleft
Runway heading: 130 magnetic, 140 true310 magnetic, 320 true
Runway end identifier lights: nono
Obstructions: none24 ft. trees, 501 ft. from runway, 81 ft. left of centerline, 20:1 slope to clear

Airport Ownership and Management from official FAA records

Ownership: Publicly-owned
Owner: CITY OF ISABEL
PO BOX 268
ISABEL, SD 57633
Phone 605-466-2177
Manager: LARRY SIMPSON
PO BOX 268
ISABEL, SD 57633
Phone 605-466-2317

Airport Operational Statistics

Aircraft operations: 54/year *
56% transient general aviation
44% local general aviation
* for 12-month period ending 21 September 2016

Additional Remarks

RY CLSD DURING WINTER MONTHS.

Instrument Procedures

There are no published instrument procedures at 3Y7.

Some nearby airports with instrument procedures:

84D - Cheyenne Eagle Butte Airport (26 nm S)
KLEM - Lemmon Municipal Airport (42 nm NW)
KMBG - Mobridge Municipal Airport (44 nm E)
KHEI - Hettinger Municipal Airport (63 nm NW)
0D8 - Gettysburg Municipal Airport (67 nm E)
 
Loc | Ops | Rwys | IFR | FBO | Links
Com | Nav | Svcs | Stats | Notes

Mandan Aero Center
 
Area around 3Y7 (Isabel Municipal Airport)
 
Road maps at: MapQuest Bing Google
 
Aerial photo
WARNING: Photo may not be current or correct
Aerial photo of 3Y7 (Isabel Municipal Airport)
Photo by Steve Hamilton
Photo taken 28-Aug-2011
looking north.

Do you have a better or more recent aerial photo of Isabel Municipal Airport that you would like to share? If so, please send us your photo.

 
Sectional chart

 
Airport distance calculator
Flying to Isabel Municipal Airport? Find the distance to fly.

From to 3Y7

Sunrise and sunset
Times for 23-Jun-2018
 Local
(UTC-6)
 Zulu
(UTC)
Morning civil twilight04:2110:21
Sunrise04:5910:59
Sunset20:3702:37
Evening civil twilight21:1503:15

Current date and time
Zulu (UTC)  23-Jun-2018 23:28:37
Local (UTC-6)  23-Jun-2018 17:28:37
 
METAR
84D 
26nm S 
SuperAWOS
232255Z AUTO 00000KT 20/18 A2986
D07 
32nm SW 
SuperAWOS
232300Z AUTO 10SM 22/16 A2984
KD07 
33nm SW 
232256Z AUTO 35012KT 23/17 A2974 RMK AO1 SLP059 T02280172
6V5 
44nm W 
SuperAWOS
232255Z AUTO 35010G15KT 10SM 22/18 A2983
KMBG 
44nm E 
232252Z AUTO 02014KT 10SM FEW023 SCT110 23/17 A2967 RMK AO2 SLP039 T02280172
KLEM 
45nm NW 
SuperAWOS
232255Z AUTO 00000KT 10SM 21/18 A2984
TAF
KMBG 
44nm E 
232135Z 2322/2418 36006KT P6SM BKN020 OVC090 FM240100 VRB04KT P6SM BKN040 FM241400 05005KT P6SM SCT020 BKN030
NOTAMs
Click for the latest NOTAMs
NOTAMs are issued by the DoD/FAA and will open in a separate window not controlled by AirNav.

 

 
 

Would you like to see your business listed on this page?

 If your business provides an interesting product or service to pilots, flight crews, aircraft, or users of the Isabel Municipal Airport, you should consider listing it here.  To start the listing process, click on the button below
 
Add a business
 

Other Pages about Isabel Municipal Airport

Update a link
 
Copyright © AirNav, LLC. All rights reserved. Privacy Policy  Contact